Location: Voyageurs National Park
(48.5020°N, 92.9292°W)
Time: 04:51:30
(UTC-06:00)

SeaSat 1 - Pass Details

Date: 19 January 2018
Orbit: 745 x 747 km, 108.0° (Epoch: 22 February)

Event Time Altitude Azimuth Distance (km) Brightness Sun altitude
Rises 07:00:16 0° 34° (NE) 3,203 5.9 -9.1°
Reaches altitude 10° 07:02:40 10° 41° (NE) 2,275 5.2 -8.7°
Maximum altitude 07:07:22 42° 112° (ESE) 1,055 3.9 -8.0°
Drops below altitude 10° 07:12:01 10° 184° (S) 2,259 5.2 -7.2°
Sets 07:14:23 0° 191° (S) 3,178 5.9 -6.9°
